Terug naar catalogus

COSMOS 1579 COOLANT

LostLEO
NORAD 28274·DEBRIS·🇷🇺 Russia

Gelanceerd Jun 29, 1984 vanaf Baikonur Cosmodrome

Loading…

Volgende Passages (komende 24 uur)

TLE

VerouderdSource: Space-Track

Epoch: Jul 6, 2026, 16:37 UTC

1 28274U 84069AK  26187.69263020  .00000260  00000-0  26517-3 0  9994
2 28274  65.0481 169.1826 0050228 332.0146  27.8220 13.93232387201957

Volg COSMOS 1579 COOLANT in realtime met AllMySat

Download on the App Store